Regional Weather Roundup
Issued by NWS

Home | Current Version | Previous Version | Text Only | Print | Product List | Glossary Off
Versions: 1 2 3 4 5 6 7 8 9 10 11 12 13 14 15 16 17 18 19 20 21 22 23 24 25 26 27 28 29 30 31 32 33 34 35 36 37 38 39 40 41 42 43 44 45 46 47 48 49 50

000
ASUS43 KFSD 260502
RWRSD

WEATHER ROUNDUP FOR SOUTH DAKOTA
NATIONAL WEATHER SERVICE SIOUX FALLS SD
1200 AM CDT SAT MAY 26 2018

NOTE: "FAIR" INDICATES FEW OR NO CLOUDS BELOW 12,000 FEET WITH NO
SIGNIFICANT WEATHER AND/OR OBSTRUCTIONS TO VISIBILITY.


SDZ001>005-009-010-012>017-260600-
NORTHWEST AND NORTH CENTRAL SOUTH DAKOTA

CITY           SKY/WX    TMP DP  RH WIND       PRES   REMARKS
BUFFALO          N/A     63  50  62 W5        29.80R
FAITH            N/A     69  54  58 NW5       29.83S
MOBRIDGE       CLEAR     66  56  70 NW7       29.73S
$$

SDZ012>016-024>037-041>051-057-063-072>074-260600-
SOUTHWEST AND SOUTH CENTRAL SOUTH DAKOTA

CITY           SKY/WX    TMP DP  RH WIND       PRES   REMARKS
RAPID CTY ARPT CLEAR     63  54  72 SW10      29.88S
PIERRE         CLEAR     66  60  81 CALM      29.77S
CUSTER         CLEAR     58  52  80 CALM      30.03R
ELLSWORTH AFB  CLEAR     64  59  84 W7        29.87S
PHILIP         CLEAR     63  62  97 W6        29.81S
PINE RIDGE     CLEAR     59  56  89 E7        29.90S
SPEARFISH      FAIR      61  54  77 S6        29.92S
WINNER         FAIR      70  59  68 SW3       29.82R
$$

SDZ004>011-016>023-039-040-260600-
NORTHEAST SOUTH DAKOTA

CITY           SKY/WX    TMP DP  RH WIND       PRES   REMARKS
ABERDEEN       CLEAR     67  56  67 W9        29.71S
WATERTOWN      CLEAR     66  55  67 CALM      29.74R
BROOKINGS      CLEAR     69  56  62 SW3       29.76R
SISSETON         N/A     76  52  43 W9        29.66S
$$

SDZ017-020-022-023-036>040-048>070-260600-
SOUTHEAST SOUTH DAKOTA

CITY           SKY/WX    TMP DP  RH WIND       PRES   REMARKS
SIOUX FALLS    CLEAR     67  61  81 SW3       29.75S
HURON          CLEAR     70  57  63 W6        29.74R
CHAMBERLAIN    CLEAR     69  62  77 CALM      29.79S
MITCHELL       CLEAR     71  59  65 W7        29.75S
YANKTON        CLEAR     70  62  76 NW3       29.77R
$$

ABBREVIATIONS USED IN REMARKS
   TC - TEMPERATURE IN CELSIUS
  WCI - WIND CHILL INDEX
   HX - HEAT INDEX
  VSB - VISIBILITY




USA.gov is the U.S. government's official web portal to all federal, state and local government web resources and services.